[[{"header":{"parameterUnit":"m.s-1","parameterCategory":1,"la1":30.2991,"la2":30.254,"lo1":-89.0895,"lo2":-89.0444,"dy":0.0017,"dx":0.0017,"nx":28,"ny":28,"refTime":"2024-02-04T03:00:00:Z","depth":0,"parameterNumber":2,"parameterNumberName":"U-component_of_WINDS"},"data":[0,0,0,0,0,0,0,0,0,0,0,0,0,0,0,0,0,0,0,0,0,0,0,0,0,0,0,0,0,0,0,0,0,0,0,0,0,0,0,0,0,0,0,0,0,0,0,0,0,0,0,0,0,0,0,0,0,0,1.2743,1.2742,0,1.271,1.271,1.271,1.2693,1.2693,1.2693,1.2693,1.2659,1.2658,1.2657,0,0,0,0,0,0,0,0,0,0,0,0,0,1.279,1.2789,1.2743,1.2742,1.2742,1.271,1.271,1.271,1.2693,1.2693,1.2693,1.2693,1.2659,1.2658,1.2657,0,0,0,0,0,0,0,0,0,0,0,0,0,1.2764,1.2789,1.2743,1.273,1.2728,1.2711,1.271,1.2709,1.2693,1.2693,1.2693,1.2692,1.2659,1.2658,1.2657,1.2649,0,0,1.2653,1.2652,0,0,0,0,0,0,0,0,1.2766,1.2763,1.2732,1.273,1.2729,1.2705,1.2714,1.2689,1.2693,1.2706,1.2693,1.2692,1.2674,1.2672,1.2666,1.2648,1.2646,1.2652,1.2652,1.2651,1.2651,0,0,0,0,0,0,0,1.2768,1.2764,1.273,1.2731,1.273,1.2725,1.2722,1.2709,1.2691,1.2705,1.2704,1.27,1.2673,1.2667,1.2665,1.2646,1.2653,1.2651,1.2651,1.265,1.2622,1.2622,0,0,0,0,0,0,1.2772,1.2766,1.2731,1.2729,1.2748,1.2725,1.2721,1.2713,1.2691,1.2687,1.27,1.2699,1.2669,1.2666,1.2663,1.2654,1.2651,1.265,1.2649,1.2622,1.2622,1.2622,0,0,0,0,0,0,1.2773,1.2769,1.2732,1.2747,1.2742,1.2724,1.2715,1.2712,1.2706,1.2687,1.2684,1.2697,1.2669,1.2665,1.2653,1.2653,1.2649,1.2648,1.2622,1.2622,1.2622,1.2636,0,0,0,0,0,0,1.2774,1.2769,1.2766,1.2747,1.2741,1.2723,1.2715,1.2712,1.2704,1.2703,1.2683,1.268,1.2669,1.2655,1.2652,1.2651,1.2647,1.2622,1.2622,1.2622,1.2635,1.2636,1.2637,0,0,0,0,0,1.2776,1.2771,1.2766,1.2762,1.2737,1.2722,1.2719,1.2706,1.2704,1.2701,1.2689,1.2681,1.2654,1.2654,1.265,1.2649,1.2622,1.2622,1.2622,1.2635,1.2636,1.2637,0,0,0,0,0,0,1.2789,1.2768,1.2762,1.2751,1.2739,1.272,1.2715,1.2708,1.2696,1.2695,1.268,1.2675,1.2665,1.2656,1.2657,1.2642,1.2637,1.2636,1.2648,1.2649,1.265,1.2653,1.2646,0,0,0,0,0,1.2791,1.2781,1.2763,1.2754,1.2749,1.2733,1.2726,1.2718,1.2704,1.2699,1.2686,1.2674,1.2662,1.2655,1.2644,1.2634,1.263,1.2631,1.2632,1.2633,1.2633,1.2628,1.2629,1.2622,1.2622,1.2622,0,0,1.2794,1.2781,1.2776,1.2757,1.2746,1.2737,1.2729,1.2719,1.2712,1.2697,1.2686,1.2676,1.2661,1.2651,1.2645,1.2642,1.2634,1.2633,1.2634,1.2633,1.2628,1.2629,1.263,1.2622,1.2622,1.2622,0,0,1.2795,1.2784,1.2777,1.2767,1.2752,1.2742,1.274,1.2722,1.2716,1.2704,1.2693,1.2685,1.2665,1.2655,1.2648,1.2647,1.264,1.2644,1.2649,1.2645,1.2645,1.2646,1.2647,1.2647,1.2644,1.2644,1.2644,0,1.2801,1.2786,1.2773,1.2764,1.2757,1.2745,1.2737,1.2728,1.271,1.2705,1.2702,1.2679,1.2668,1.2655,1.2656,1.2649,1.2648,1.2646,1.2646,1.2647,1.2647,1.2647,1.2648,1.2644,1.2644,1.2644,1.2644,0,1.2795,1.2785,1.278,1.2764,1.2756,1.2748,1.2734,1.2728,1.272,1.2711,1.27,1.2686,1.2672,1.2669,1.2661,1.2656,1.2655,1.2649,1.2644,1.2648,1.2649,1.2649,1.2645,1.2645,1.2645,1.2645,0,0,1.2802,1.278,1.2779,1.2772,1.2755,1.2747,1.2739,1.2726,1.2721,1.2709,1.2703,1.2687,1.2683,1.2674,1.2666,1.2662,1.2664,1.2657,1.2657,1.266,1.2659,1.2663,1.2664,1.2659,1.2659,1.2659,1.266,0,1.2801,1.2786,1.2775,1.2764,1.2756,1.2745,1.2738,1.2727,1.2718,1.271,1.27,1.269,1.2684,1.2679,1.2675,1.2664,1.2664,1.2664,1.2653,1.2652,1.2657,1.2664,1.2668,1.267,1.266,1.266,1.266,0,1.2797,1.2787,1.2776,1.2762,1.2758,1.2751,1.274,1.2732,1.272,1.2714,1.2705,1.2697,1.2688,1.2684,1.2673,1.2673,1.2668,1.2663,1.2662,1.2661,1.2657,1.2663,1.267,1.2671,1.266,1.266,1.266,0,1.2805,1.2788,1.278,1.2774,1.2757,1.2753,1.2746,1.2734,1.2727,1.2717,1.2713,1.2702,1.2696,1.2687,1.2676,1.2674,1.2666,1.2661,1.2662,1.2662,1.266,1.2661,1.2668,1.2656,1.2656,1.2656,1.2656,0,1.2805,1.2799,1.2783,1.2778,1.2771,1.2759,1.2752,1.2744,1.2734,1.2727,1.2717,1.2711,1.2696,1.2689,1.268,1.2672,1.2669,1.2665,1.2663,1.2666,1.2667,1.2662,1.2662,1.2656,1.2656,1.2656,1.2656,0,1.2812,1.2801,1.2791,1.2777,1.2773,1.2769,1.2756,1.2751,1.2742,1.2734,1.2731,1.2718,1.2708,1.2697,1.2683,1.2677,1.2671,1.2667,1.2676,1.2674,1.2676,1.2676,1.268,1.2681,1.2669,1.2669,1.2669,0,1.2813,1.2808,1.2794,1.2789,1.2782,1.2774,1.2768,1.2756,1.275,1.2738,1.2734,1.2724,1.2716,1.2702,1.269,1.2681,1.2677,1.2679,1.2675,1.2679,1.2678,1.2679,1.2679,1.268,1.268,1.2681,1.2681,0,1.2816,1.2812,1.2803,1.2794,1.2787,1.2779,1.277,1.2766,1.2753,1.2747,1.2738,1.2732,1.2719,1.271,1.2699,1.2691,1.2684,1.2682,1.2682,1.2685,1.2691,1.2689,1.2679,1.2682,1.2682,1.2682,1.2682,1.2682,1.282,1.2816,1.2806,1.2797,1.279,1.2783,1.2777,1.2769,1.2761,1.275,1.2744,1.2736,1.2725,1.271,1.2703,1.2697,1.2694,1.2693,1.2693,1.2693,1.2695,1.2692,1.2694,1.2694,1.2694,1.2694,1.2694,0,1.2824,1.2817,1.2809,1.2798,1.2792,1.2787,1.2777,1.2772,1.2765,1.2756,1.2749,1.2739,1.273,1.2719,1.271,1.2707,1.2704,1.2705,1.2705,1.2704,1.2697,1.2699,1.2708,1.2708,1.2708,1.2708,1.2708,1.2708,1.2825,1.2818,1.2812,1.2802,1.2795,1.2787,1.2782,1.2776,1.2769,1.2759,1.2752,1.2745,1.2736,1.2726,1.2719,1.2716,1.2713,1.2716,1.2712,1.2706,1.2704,1.2703,1.2705,1.2715,1.2715,1.2719,1.2719,1.2719]},{"header":{"parameterUnit":"m.s-1","parameterCategory":1,"la1":30.2991,"la2":30.254,"lo1":-89.0895,"lo2":-89.0444,"dy":0.0017,"dx":0.0017,"nx":28,"ny":28,"refTime":"2024-02-04T03:00:00:Z","depth":0,"parameterNumber":3,"parameterNumberName":"V-component_of_WINDS"},"data":[0,0,0,0,0,0,0,0,0,0,0,0,0,0,0,0,0,0,0,0,0,0,0,0,0,0,0,0,0,0,0,0,0,0,0,0,0,0,0,0,0,0,0,0,0,0,0,0,0,0,0,0,0,0,0,0,0,0,-7.34,-7.3401,0,-7.3545,-7.3546,-7.3548,-7.3439,-7.3434,-7.3429,-7.3425,-7.3569,-7.3577,-7.3585,0,0,0,0,0,0,0,0,0,0,0,0,0,-7.3027,-7.3035,-7.34,-7.3401,-7.3403,-7.3544,-7.3546,-7.3548,-7.344,-7.3434,-7.3428,-7.3423,-7.3566,-7.3576,-7.3586,0,0,0,0,0,0,0,0,0,0,0,0,0,-7.3182,-7.3037,-7.3399,-7.3366,-7.3365,-7.3544,-7.3546,-7.3549,-7.3441,-7.3434,-7.3427,-7.342,-7.3563,-7.3575,-7.3587,-7.3806,0,0,-7.3625,-7.3631,0,0,0,0,0,0,0,0,-7.3174,-7.3196,-7.3369,-7.3369,-7.3367,-7.3467,-7.3468,-7.3635,-7.3443,-7.3412,-7.3425,-7.3417,-7.354,-7.3554,-7.3597,-7.3813,-7.3819,-7.3626,-7.3634,-7.3639,-7.3643,0,0,0,0,0,0,0,-7.3163,-7.3189,-7.3457,-7.3372,-7.3371,-7.3344,-7.3358,-7.3499,-7.3514,-7.3414,-7.3406,-7.3425,-7.3539,-7.3585,-7.3599,-7.3821,-7.3626,-7.3637,-7.3645,-7.3649,-7.4226,-7.4233,0,0,0,0,0,0,-7.3156,-7.3181,-7.3452,-7.3461,-7.3251,-7.3356,-7.3372,-7.3442,-7.3512,-7.3516,-7.3431,-7.342,-7.3568,-7.3585,-7.3604,-7.3865,-7.3639,-7.3651,-7.3658,-7.4218,-7.4228,-7.4236,0,0,0,0,0,0,-7.3148,-7.3181,-7.3446,-7.3319,-7.3351,-7.337,-7.3449,-7.3448,-7.3495,-7.3525,-7.3527,-7.3476,-7.3563,-7.3587,-7.3757,-7.3869,-7.3656,-7.3668,-7.4209,-7.4221,-7.4232,-7.439,0,0,0,0,0,0,-7.3138,-7.3179,-7.3262,-7.3322,-7.3358,-7.3598,-7.3456,-7.3456,-7.3517,-7.3503,-7.3568,-7.3572,-7.3559,-7.374,-7.377,-7.3882,-7.3677,-7.4199,-7.4214,-7.4228,-7.4374,-7.4405,-7.4432,0,0,0,0,0,-7.3125,-7.3299,-7.3267,-7.33,-7.3463,-7.3605,-7.3625,-7.3608,-7.3527,-7.361,-7.3631,-7.357,-7.3853,-7.3758,-7.3791,-7.3909,-7.4192,-7.421,-7.4227,-7.4362,-7.4399,-7.4431,0,0,0,0,0,0,-7.3249,-7.3306,-7.3271,-7.347,-7.3534,-7.3586,-7.369,-7.3648,-7.3735,-7.3718,-7.3692,-7.3708,-7.3887,-7.3915,-7.3809,-7.4125,-7.4009,-7.4034,-7.41,-7.4136,-7.4164,-7.4153,-7.3687,0,0,0,0,0,-7.33,-7.3412,-7.3455,-7.3626,-7.3661,-7.3671,-7.3732,-7.3714,-7.3778,-7.3804,-7.3836,-7.39,-7.4003,-7.4071,-7.4168,-7.4379,-7.4392,-7.4477,-7.4505,-7.4529,-7.455,-7.4665,-7.4703,-7.4294,-7.4294,-7.4294,0,0,-7.3405,-7.3451,-7.3522,-7.3653,-7.37,-7.3816,-7.3694,-7.382,-7.3906,-7.3822,-7.3986,-7.4013,-7.4082,-7.4275,-7.4361,-7.4304,-7.4667,-7.4552,-7.457,-7.4578,-7.4687,-7.4726,-7.476,-7.4307,-7.4304,-7.4302,0,0,-7.3656,-7.3702,-7.385,-7.3902,-7.3976,-7.3982,-7.4019,-7.4079,-7.4094,-7.4259,-7.4199,-7.4301,-7.4479,-7.4531,-7.4581,-7.4859,-7.4806,-7.4891,-7.5039,-7.5152,-7.5184,-7.5213,-7.5311,-7.5347,-7.4913,-7.4913,-7.4913,0,-7.3777,-7.3949,-7.3931,-7.4064,-7.4124,-7.4057,-7.4208,-7.4258,-7.4359,-7.4402,-7.4337,-7.4562,-7.4604,-7.4808,-7.4876,-7.4919,-7.4959,-7.4882,-7.5181,-7.521,-7.5236,-7.5329,-7.5367,-7.4923,-7.4922,-7.4921,-7.492,0,-7.4095,-7.4216,-7.4327,-7.443,-7.4502,-7.4643,-7.4647,-7.4722,-7.47,-7.4713,-7.4883,-7.4932,-7.5038,-7.5086,-7.5064,-7.5289,-7.5251,-7.5185,-7.5067,-7.5285,-7.5372,-7.5408,-7.4937,-7.4933,-7.493,-7.4928,0,0,-7.4422,-7.4518,-7.4559,-7.4606,-7.4685,-7.4778,-7.4918,-7.5024,-7.5089,-7.5163,-7.5279,-7.5434,-7.5374,-7.5431,-7.5415,-7.5514,-7.5731,-7.5435,-7.5437,-7.5488,-7.5982,-7.6031,-7.6072,-7.5698,-7.5705,-7.5711,-7.5976,0,-7.4677,-7.492,-7.491,-7.5137,-7.5249,-7.519,-7.5312,-7.5374,-7.5392,-7.5489,-7.5508,-7.5619,-7.5531,-7.5566,-7.5662,-7.5684,-7.583,-7.5665,-7.5804,-7.5809,-7.5786,-7.6118,-7.6168,-7.6416,-7.601,-7.6016,-7.602,0,-7.5004,-7.5092,-7.5331,-7.5398,-7.5444,-7.5554,-7.5652,-7.5747,-7.5817,-7.5823,-7.589,-7.5859,-7.5999,-7.5881,-7.6075,-7.5963,-7.602,-7.6041,-7.605,-7.606,-7.5926,-7.6136,-7.6495,-7.6532,-7.6074,-7.607,-7.6066,0,-7.5219,-7.5397,-7.5564,-7.5606,-7.5688,-7.5766,-7.5803,-7.5867,-7.5933,-7.6019,-7.6061,-7.6163,-7.6217,-7.6296,-7.6293,-7.6207,-7.649,-7.6371,-7.6498,-7.6498,-7.6557,-7.6553,-7.6929,-7.6598,-7.6598,-7.6597,-7.6596,0,-7.5502,-7.565,-7.5662,-7.5764,-7.5929,-7.5918,-7.6081,-7.611,-7.6169,-7.6275,-7.6231,-7.6332,-7.6323,-7.6425,-7.6424,-7.6585,-7.661,-7.6618,-7.6616,-7.6621,-7.662,-7.6656,-7.6638,-7.6607,-7.6605,-7.6603,-7.6601,0,-7.5767,-7.5781,-7.5959,-7.6024,-7.6044,-7.6162,-7.6217,-7.6315,-7.6331,-7.6467,-7.6498,-7.6523,-7.6641,-7.6647,-7.6783,-7.6782,-7.6978,-7.6957,-7.6954,-7.695,-7.7076,-7.7064,-7.7486,-7.7541,-7.7177,-7.718,-7.7183,0,-7.5945,-7.6059,-7.6137,-7.6207,-7.625,-7.6362,-7.643,-7.6425,-7.6498,-7.6589,-7.6676,-7.6791,-7.6881,-7.7074,-7.7103,-7.7207,-7.7187,-7.7329,-7.7202,-7.7205,-7.7188,-7.718,-7.7191,-7.7352,-7.7356,-7.7359,-7.7362,0,-7.626,-7.6263,-7.6364,-7.6469,-7.6553,-7.6634,-7.671,-7.677,-7.6774,-7.6858,-7.698,-7.7051,-7.7192,-7.7306,-7.7409,-7.7446,-7.7405,-7.7403,-7.7437,-7.7442,-7.7435,-7.744,-7.7019,-7.7392,-7.7389,-7.7386,-7.7385,-7.7384,-7.6486,-7.6585,-7.6657,-7.6772,-7.683,-7.6903,-7.6999,-7.7029,-7.7131,-7.7247,-7.7238,-7.7373,-7.7443,-7.7577,-7.7624,-7.7729,-7.768,-7.7731,-7.7743,-7.7755,-7.7768,-7.7422,-7.7748,-7.7747,-7.7746,-7.7745,-7.7745,0,-7.6798,-7.6843,-7.6949,-7.7059,-7.715,-7.7108,-7.7191,-7.7269,-7.7389,-7.7459,-7.7552,-7.7693,-7.7805,-7.7846,-7.7955,-7.8032,-7.8016,-7.806,-7.8053,-7.8062,-7.7805,-7.7764,-7.8071,-7.8071,-7.8071,-7.8071,-7.8071,-7.8071,-7.697,-7.7136,-7.7148,-7.7342,-7.7386,-7.752,-7.7571,-7.7639,-7.7695,-7.7856,-7.795,-7.7977,-7.8036,-7.815,-7.8251,-7.826,-7.8301,-7.8353,-7.8354,-7.8113,-7.808,-7.8048,-7.8009,-7.8363,-7.8363,-7.8602,-7.8604,-7.8606]}]]